Location: Blandford
(50.8667°N, 2.1667°W)
Time: 17:46:16
(UTC+00:00)

ERS-1 Rocket - Pass Details

Date: 09 April 2020
Orbit: 754 x 757 km, 98.5° (Epoch: 01 June)

Event Time Altitude Azimuth Distance (km) Brightness Sun altitude
Exits shadow 22:27:01 32° 243° (WSW) 1,278 4.1 -27.0°
Maximum altitude 22:27:52 34° 264° (W) 1,226 4.2 -27.1°
Drops below altitude 10° 22:32:28 10° 330° (NNW) 2,293 6.4 -27.4°
Sets 22:34:58 0° 339° (NNW) 3,222 7.5 -27.6°
